Time,TemperatureF,DewpointF,PressureIn,WindDirection,WindDirectionDegrees,WindSpeedMPH,WindSpeedGustMPH,Humidity,HourlyPrecipIn,Conditions,Clouds,dailyrainin,SoftwareType,DateUTC
2017-05-26 00:01:00,53.8,34.5,29.89,NNE,23,0.0,1.1,48,0.00,,,0.00,WUHU216HW,2017-05-26 06:01:00,
2017-05-26 00:06:00,53.6,34.4,29.89,NNE,23,0.0,1.1,48,0.00,,,0.00,WUHU216HW,2017-05-26 06:06:00,
2017-05-26 00:11:00,53.6,34.4,29.89,East,90,0.7,1.3,48,0.00,,,0.00,WUHU216HW,2017-05-26 06:11:00,
2017-05-26 00:16:00,53.3,34.6,29.89,East,90,0.4,1.3,49,0.00,,,0.00,WUHU216HW,2017-05-26 06:16:00,
2017-05-26 00:21:00,53.1,34.4,29.89,SE,135,1.1,2.5,49,0.00,,,0.00,WUHU216HW,2017-05-26 06:21:00,
2017-05-26 00:26:00,52.9,34.3,29.89,South,180,0.7,2.5,49,0.00,,,0.00,WUHU216HW,2017-05-26 06:26:00,
2017-05-26 00:31:00,52.7,34.7,29.90,WNW,293,3.8,3.8,50,0.00,,,0.00,WUHU216HW,2017-05-26 06:31:00,
2017-05-26 00:32:00,52.7,34.1,29.89,WNW,293,1.6,3.8,49,0.00,,,0.00,WUHU216HW,2017-05-26 06:32:00,
2017-05-26 00:37:00,52.6,34.5,29.90,SSE,158,2.5,3.8,50,0.00,,,0.00,WUHU216HW,2017-05-26 06:37:00,
2017-05-26 00:42:00,52.4,34.3,29.90,WSW,248,1.3,3.6,50,0.00,,,0.00,WUHU216HW,2017-05-26 06:42:00,
2017-05-26 00:47:00,52.2,34.7,29.90,ESE,113,1.8,2.2,51,0.00,,,0.00,WUHU216HW,2017-05-26 06:47:00,
2017-05-26 00:52:00,52.2,34.2,29.90,NNE,23,0.0,1.8,50,0.00,,,0.00,WUHU216HW,2017-05-26 06:52:00,
2017-05-26 00:57:00,52.2,34.2,29.90,NW,315,0.7,1.8,50,0.00,,,0.00,WUHU216HW,2017-05-26 06:57:00,
2017-05-26 01:02:00,52.0,34.0,29.90,SSW,203,2.2,2.2,50,0.00,,,0.00,WUHU216HW,2017-05-26 07:02:00,
2017-05-26 01:07:00,51.8,34.3,29.90,ESE,113,0.4,2.2,51,0.00,,,0.00,WUHU216HW,2017-05-26 07:07:00,
2017-05-26 01:12:00,51.8,34.3,29.90,NW,315,1.1,1.8,51,0.00,,,0.00,WUHU216HW,2017-05-26 07:12:00,
2017-05-26 01:17:00,51.7,34.1,29.91,NNW,338,0.7,3.4,51,0.00,,,0.00,WUHU216HW,2017-05-26 07:17:00,
2017-05-26 01:22:00,51.7,34.1,29.91,ESE,113,0.4,3.4,51,0.00,,,0.00,WUHU216HW,2017-05-26 07:22:00,
2017-05-26 01:27:00,51.5,33.9,29.91,ESE,113,0.4,2.2,51,0.00,,,0.00,WUHU216HW,2017-05-26 07:27:00,
2017-05-26 01:32:00,51.5,34.4,29.91,ESE,113,0.0,1.1,52,0.00,,,0.00,WUHU216HW,2017-05-26 07:32:00,
2017-05-26 01:37:00,51.3,34.3,29.91,SSE,158,0.2,1.1,52,0.00,,,0.00,WUHU216HW,2017-05-26 07:37:00,
2017-05-26 01:42:00,51.1,34.1,29.91,North,0,3.8,3.8,52,0.00,,,0.00,WUHU216HW,2017-05-26 07:42:00,
2017-05-26 01:47:00,50.9,34.4,29.91,SW,225,1.1,3.8,53,0.00,,,0.00,WUHU216HW,2017-05-26 07:47:00,
2017-05-26 01:52:00,50.8,34.2,29.92,SE,135,0.0,2.2,53,0.00,,,0.00,WUHU216HW,2017-05-26 07:52:00,
2017-05-26 01:54:00,50.8,34.2,29.92,SW,225,0.4,2.2,53,0.00,,,0.00,WUHU216HW,2017-05-26 07:54:00,
2017-05-26 01:59:00,50.8,34.2,29.92,ESE,113,1.3,2.0,53,0.00,,,0.00,WUHU216HW,2017-05-26 07:59:00,
2017-05-26 02:04:00,50.8,34.2,29.92,WNW,293,1.8,2.2,53,0.00,,,0.00,WUHU216HW,2017-05-26 08:04:00,
2017-05-26 02:05:00,50.8,34.2,29.92,NW,315,2.7,2.7,53,0.00,,,0.00,WUHU216HW,2017-05-26 08:05:00,
2017-05-26 02:10:00,50.8,34.2,29.92,ENE,68,1.1,2.7,53,0.00,,,0.00,WUHU216HW,2017-05-26 08:10:00,
2017-05-26 02:15:00,50.8,34.2,29.92,East,90,0.0,1.8,53,0.00,,,0.00,WUHU216HW,2017-05-26 08:15:00,
2017-05-26 02:20:00,50.8,34.2,29.92,NNE,23,0.4,0.9,53,0.00,,,0.00,WUHU216HW,2017-05-26 08:20:00,
2017-05-26 02:25:00,50.6,34.0,29.92,NNW,338,0.9,0.9,53,0.00,,,0.00,WUHU216HW,2017-05-26 08:25:00,
2017-05-26 02:30:00,50.6,34.0,29.92,NE,45,0.4,1.1,53,0.00,,,0.00,WUHU216HW,2017-05-26 08:30:00,
2017-05-26 02:35:00,50.6,34.0,29.92,ENE,68,0.0,1.1,53,0.00,,,0.00,WUHU216HW,2017-05-26 08:35:00,
2017-05-26 02:40:00,50.4,33.9,29.92,NW,315,1.1,2.5,53,0.00,,,0.00,WUHU216HW,2017-05-26 08:40:00,
2017-05-26 02:45:00,50.4,33.9,29.92,NNW,338,0.4,2.5,53,0.00,,,0.00,WUHU216HW,2017-05-26 08:45:00,
2017-05-26 02:50:00,50.4,33.9,29.92,NNW,338,0.0,0.9,53,0.00,,,0.00,WUHU216HW,2017-05-26 08:50:00,
2017-05-26 02:56:00,50.4,33.9,29.92,NNW,338,0.0,0.0,53,0.00,,,0.00,WUHU216HW,2017-05-26 08:56:00,
2017-05-26 03:01:00,50.4,33.9,29.92,North,0,0.2,0.9,53,0.00,,,0.00,WUHU216HW,2017-05-26 09:01:00,
2017-05-26 03:06:00,50.4,33.9,29.92,NNE,23,1.1,1.6,53,0.00,,,0.00,WUHU216HW,2017-05-26 09:06:00,
2017-05-26 03:11:00,50.4,34.4,29.92,NE,45,0.0,1.6,54,0.00,,,0.00,WUHU216HW,2017-05-26 09:11:00,
2017-05-26 03:16:00,50.2,34.2,29.92,NE,45,0.0,0.4,54,0.00,,,0.00,WUHU216HW,2017-05-26 09:16:00,
2017-05-26 03:21:00,50.2,34.2,29.93,NNE,23,0.4,0.4,54,0.00,,,0.00,WUHU216HW,2017-05-26 09:21:00,
2017-05-26 03:26:00,50.2,34.2,29.93,WSW,248,0.2,1.6,54,0.00,,,0.00,WUHU216HW,2017-05-26 09:26:00,
2017-05-26 03:31:00,50.0,34.0,29.93,NE,45,0.9,1.6,54,0.00,,,0.00,WUHU216HW,2017-05-26 09:31:00,
2017-05-26 03:36:00,50.0,34.0,29.93,NE,45,1.1,1.3,54,0.00,,,0.00,WUHU216HW,2017-05-26 09:36:00,
2017-05-26 03:41:00,50.0,34.0,29.93,NE,45,0.9,1.3,54,0.00,,,0.00,WUHU216HW,2017-05-26 09:41:00,
2017-05-26 03:46:00,50.0,34.0,29.93,North,0,0.2,1.1,54,0.00,,,0.00,WUHU216HW,2017-05-26 09:46:00,
2017-05-26 03:51:00,49.9,33.8,29.93,NW,315,1.1,1.8,54,0.00,,,0.00,WUHU216HW,2017-05-26 09:51:00,
2017-05-26 03:56:00,49.7,34.1,29.94,NW,315,0.0,1.8,55,0.00,,,0.00,WUHU216HW,2017-05-26 09:56:00,
2017-05-26 04:01:00,49.7,34.1,29.94,WNW,293,0.0,0.4,55,0.00,,,0.00,WUHU216HW,2017-05-26 10:01:00,
2017-05-26 04:06:00,49.5,33.9,29.94,WNW,293,0.9,1.1,55,0.00,,,0.00,WUHU216HW,2017-05-26 10:06:00,
2017-05-26 04:11:00,49.3,33.8,29.94,NNE,23,0.9,1.1,55,0.00,,,0.00,WUHU216HW,2017-05-26 10:11:00,
2017-05-26 04:16:00,49.3,33.8,29.94,North,0,0.4,0.9,55,0.00,,,0.00,WUHU216HW,2017-05-26 10:16:00,
2017-05-26 04:21:00,49.1,33.7,29.94,NE,45,0.4,1.1,55,0.00,,,0.00,WUHU216HW,2017-05-26 10:21:00,
2017-05-26 04:26:00,49.1,34.1,29.94,NE,45,0.0,1.1,56,0.00,,,0.00,WUHU216HW,2017-05-26 10:26:00,
2017-05-26 04:31:00,49.0,33.9,29.94,East,90,0.9,1.3,56,0.00,,,0.00,WUHU216HW,2017-05-26 10:31:00,
2017-05-26 04:36:00,49.0,34.4,29.94,NE,45,0.9,1.3,57,0.00,,,0.00,WUHU216HW,2017-05-26 10:36:00,
2017-05-26 04:41:00,48.8,34.2,29.94,NNE,23,0.7,2.0,57,0.00,,,0.00,WUHU216HW,2017-05-26 10:41:00,
2017-05-26 04:46:00,48.6,34.0,29.94,NE,45,0.2,2.0,57,0.00,,,0.00,WUHU216HW,2017-05-26 10:46:00,
2017-05-26 04:51:00,48.6,34.5,29.94,ENE,68,0.0,1.6,58,0.00,,,0.00,WUHU216HW,2017-05-26 10:51:00,
2017-05-26 04:56:00,48.4,34.3,29.94,ENE,68,0.0,1.6,58,0.00,,,0.00,WUHU216HW,2017-05-26 10:56:00,
2017-05-26 05:01:00,48.2,34.2,29.94,ESE,113,1.3,1.3,58,0.00,,,0.00,WUHU216HW,2017-05-26 11:01:00,
2017-05-26 05:06:00,48.1,34.0,29.94,ESE,113,1.6,2.0,58,0.00,,,0.00,WUHU216HW,2017-05-26 11:06:00,
2017-05-26 05:11:00,47.9,34.3,29.95,East,90,2.0,2.0,59,0.00,,,0.00,WUHU216HW,2017-05-26 11:11:00,
2017-05-26 05:16:00,47.7,34.1,29.95,ENE,68,2.2,2.5,59,0.00,,,0.00,WUHU216HW,2017-05-26 11:16:00,
2017-05-26 05:21:00,47.7,34.1,29.95,East,90,2.5,2.7,59,0.00,,,0.00,WUHU216HW,2017-05-26 11:21:00,
2017-05-26 05:22:00,47.5,33.9,29.95,ENE,68,1.1,2.7,59,0.00,,,0.00,WUHU216HW,2017-05-26 11:22:00,
2017-05-26 05:27:00,47.5,33.9,29.95,ENE,68,1.8,2.7,59,0.00,,,0.00,WUHU216HW,2017-05-26 11:27:00,
2017-05-26 05:32:00,47.3,33.8,29.94,ESE,113,1.1,2.7,59,0.00,,,0.00,WUHU216HW,2017-05-26 11:32:00,
2017-05-26 05:37:00,47.2,33.6,29.95,ESE,113,1.8,2.7,59,0.00,,,0.00,WUHU216HW,2017-05-26 11:37:00,
2017-05-26 05:42:00,47.2,34.0,29.95,East,90,1.3,2.5,60,0.00,,,0.00,WUHU216HW,2017-05-26 11:42:00,
2017-05-26 05:47:00,47.2,34.0,29.95,ESE,113,2.5,2.5,60,0.00,,,0.00,WUHU216HW,2017-05-26 11:47:00,
2017-05-26 05:52:00,47.0,33.4,29.95,East,90,0.2,2.5,59,0.00,,,0.00,WUHU216HW,2017-05-26 11:52:00,
2017-05-26 05:57:00,46.8,33.2,29.95,East,90,0.9,2.0,59,0.00,,,0.00,WUHU216HW,2017-05-26 11:57:00,
2017-05-26 06:02:00,46.8,33.2,29.95,ENE,68,0.4,1.8,59,0.00,,,0.00,WUHU216HW,2017-05-26 12:02:00,
2017-05-26 06:07:00,46.8,33.2,29.95,ENE,68,1.8,1.8,59,0.00,,,0.00,WUHU216HW,2017-05-26 12:07:00,
2017-05-26 06:12:00,46.6,33.0,29.96,NNE,23,2.2,2.5,59,0.00,,,0.00,WUHU216HW,2017-05-26 12:12:00,
2017-05-26 06:17:00,46.4,33.3,29.96,NE,45,2.5,4.3,60,0.00,,,0.00,WUHU216HW,2017-05-26 12:17:00,
2017-05-26 06:22:00,46.4,33.7,29.96,ENE,68,1.8,4.3,61,0.00,,,0.00,WUHU216HW,2017-05-26 12:22:00,
2017-05-26 06:27:00,46.4,33.7,29.96,NE,45,0.4,2.5,61,0.00,,,0.00,WUHU216HW,2017-05-26 12:27:00,
2017-05-26 06:32:00,46.4,33.7,29.96,North,0,0.0,1.6,61,0.00,,,0.00,WUHU216HW,2017-05-26 12:32:00,
2017-05-26 06:33:00,46.4,33.7,29.96,North,0,0.0,1.6,61,0.00,,,0.00,WUHU216HW,2017-05-26 12:33:00,
2017-05-26 06:38:00,46.6,33.8,29.96,West,270,2.5,2.5,61,0.00,,,0.00,WUHU216HW,2017-05-26 12:38:00,
2017-05-26 06:43:00,47.0,34.7,29.96,WSW,248,0.4,2.5,62,0.00,,,0.00,WUHU216HW,2017-05-26 12:43:00,
2017-05-26 06:48:00,47.2,34.8,29.96,NW,315,1.8,2.5,62,0.00,,,0.00,WUHU216HW,2017-05-26 12:48:00,
2017-05-26 06:53:00,47.2,34.8,29.96,NNW,338,0.4,2.7,62,0.00,,,0.00,WUHU216HW,2017-05-26 12:53:00,
2017-05-26 06:58:00,47.5,35.2,29.96,NNE,23,0.9,2.7,62,0.00,,,0.00,WUHU216HW,2017-05-26 12:58:00,
2017-05-26 07:03:00,47.7,35.7,29.96,NNE,23,1.1,1.1,63,0.00,,,0.00,WUHU216HW,2017-05-26 13:03:00,
2017-05-26 07:08:00,47.9,35.9,29.97,NE,45,1.6,1.8,63,0.00,,,0.00,WUHU216HW,2017-05-26 13:08:00,
2017-05-26 07:13:00,48.2,36.3,29.96,NE,45,0.2,2.2,63,0.00,,,0.00,WUHU216HW,2017-05-26 13:13:00,
2017-05-26 07:18:00,48.4,36.0,29.96,East,90,0.7,2.2,62,0.00,,,0.00,WUHU216HW,2017-05-26 13:18:00,
2017-05-26 07:23:00,48.6,35.8,29.97,North,0,0.7,1.3,61,0.00,,,0.00,WUHU216HW,2017-05-26 13:23:00,
2017-05-26 07:28:00,48.8,36.0,29.97,NW,315,0.0,2.2,61,0.00,,,0.00,WUHU216HW,2017-05-26 13:28:00,
2017-05-26 07:33:00,49.0,36.6,29.97,North,0,0.9,2.2,62,0.00,,,0.00,WUHU216HW,2017-05-26 13:33:00,
2017-05-26 07:38:00,49.1,36.7,29.97,North,0,0.4,1.3,62,0.00,,,0.00,WUHU216HW,2017-05-26 13:38:00,
2017-05-26 07:43:00,49.3,36.8,29.97,NE,45,0.0,0.9,62,0.00,,,0.00,WUHU216HW,2017-05-26 13:43:00,
2017-05-26 07:48:00,49.9,37.0,29.96,NNE,23,0.4,0.9,61,0.00,,,0.00,WUHU216HW,2017-05-26 13:48:00,
2017-05-26 07:53:00,50.0,36.7,29.96,North,0,1.1,2.5,60,0.00,,,0.00,WUHU216HW,2017-05-26 13:53:00,
2017-05-26 07:58:00,50.4,37.1,29.96,North,0,0.9,2.5,60,0.00,,,0.00,WUHU216HW,2017-05-26 13:58:00,
2017-05-26 08:03:00,50.8,37.4,29.97,North,0,0.7,2.9,60,0.00,,,0.00,WUHU216HW,2017-05-26 14:03:00,
2017-05-26 08:08:00,50.9,37.5,29.97,North,0,2.0,2.9,60,0.00,,,0.00,WUHU216HW,2017-05-26 14:08:00,
2017-05-26 08:13:00,51.1,37.3,29.97,NNE,23,1.6,3.1,59,0.00,,,0.00,WUHU216HW,2017-05-26 14:13:00,
2017-05-26 08:18:00,51.3,37.5,29.97,North,0,2.7,4.7,59,0.00,,,0.00,WUHU216HW,2017-05-26 14:18:00,
2017-05-26 08:23:00,51.5,37.5,29.97,NNW,338,3.1,5.4,59,0.00,,,0.00,WUHU216HW,2017-05-26 14:23:00,
2017-05-26 08:28:00,51.7,38.2,29.97,North,0,3.8,5.4,60,0.00,,,0.00,WUHU216HW,2017-05-26 14:28:00,
2017-05-26 08:33:00,51.8,37.9,29.97,NNE,23,3.4,6.9,59,0.00,,,0.00,WUHU216HW,2017-05-26 14:33:00,
2017-05-26 08:38:00,52.2,37.8,29.97,NNE,23,6.7,6.9,58,0.00,,,0.00,WUHU216HW,2017-05-26 14:38:00,
2017-05-26 08:43:00,52.2,37.8,29.97,NNE,23,3.4,6.7,58,0.00,,,0.00,WUHU216HW,2017-05-26 14:43:00,
2017-05-26 08:48:00,52.6,37.7,29.97,NE,45,4.5,5.1,57,0.00,,,0.00,WUHU216HW,2017-05-26 14:48:00,
2017-05-26 08:53:00,52.9,37.6,29.97,NNW,338,4.7,7.6,56,0.00,,,0.00,WUHU216HW,2017-05-26 14:53:00,
2017-05-26 08:58:00,52.9,37.6,29.97,North,0,3.1,7.6,56,0.00,,,0.00,WUHU216HW,2017-05-26 14:58:00,
2017-05-26 08:59:00,53.1,37.7,29.97,North,0,2.5,7.6,56,0.00,,,0.00,WUHU216HW,2017-05-26 14:59:00,
2017-05-26 09:04:00,53.3,37.9,29.97,NNW,338,2.5,6.3,56,0.00,,,0.00,WUHU216HW,2017-05-26 15:04:00,
2017-05-26 09:09:00,53.6,37.8,29.97,North,0,2.5,5.8,55,0.00,,,0.00,WUHU216HW,2017-05-26 15:09:00,
2017-05-26 09:14:00,54.0,38.6,29.97,North,0,4.7,5.8,56,0.00,,,0.00,WUHU216HW,2017-05-26 15:14:00,
2017-05-26 09:19:00,54.4,38.9,29.97,NE,45,4.7,5.1,56,0.00,,,0.00,WUHU216HW,2017-05-26 15:19:00,
2017-05-26 09:24:00,54.9,39.0,29.97,NNE,23,3.8,5.1,55,0.00,,,0.00,WUHU216HW,2017-05-26 15:24:00,
2017-05-26 09:29:00,55.1,39.1,29.97,WNW,293,3.8,5.4,55,0.00,,,0.00,WUHU216HW,2017-05-26 15:29:00,
2017-05-26 09:34:00,55.4,39.4,29.97,NNE,23,2.5,5.4,55,0.00,,,0.00,WUHU216HW,2017-05-26 15:34:00,
2017-05-26 09:39:00,55.8,39.3,29.97,North,0,2.7,3.1,54,0.00,,,0.00,WUHU216HW,2017-05-26 15:39:00,
2017-05-26 09:44:00,56.2,39.7,29.97,NNE,23,4.0,4.7,54,0.00,,,0.00,WUHU216HW,2017-05-26 15:44:00,
2017-05-26 09:49:00,56.5,40.1,29.96,NW,315,3.1,4.7,54,0.00,,,0.00,WUHU216HW,2017-05-26 15:49:00,
2017-05-26 09:54:00,56.9,40.4,29.96,NNE,23,2.5,5.8,54,0.00,,,0.00,WUHU216HW,2017-05-26 15:54:00,
2017-05-26 09:59:00,57.2,39.8,29.96,NNW,338,2.9,5.8,52,0.00,,,0.00,WUHU216HW,2017-05-26 15:59:00,
2017-05-26 10:04:00,57.6,40.1,29.96,NNE,23,2.9,6.7,52,0.00,,,0.00,WUHU216HW,2017-05-26 16:04:00,
2017-05-26 10:09:00,58.0,40.5,29.96,NNE,23,4.5,6.7,52,0.00,,,0.00,WUHU216HW,2017-05-26 16:09:00,
2017-05-26 10:14:00,58.5,40.5,29.96,NNW,338,1.8,4.9,51,0.00,,,0.00,WUHU216HW,2017-05-26 16:14:00,
2017-05-26 10:19:00,58.9,40.3,29.96,NNE,23,2.0,4.9,50,0.00,,,0.00,WUHU216HW,2017-05-26 16:19:00,
2017-05-26 10:24:00,59.6,41.5,29.96,NW,315,1.6,4.5,51,0.00,,,0.00,WUHU216HW,2017-05-26 16:24:00,
2017-05-26 10:29:00,60.1,40.9,29.95,North,0,1.6,4.5,49,0.00,,,0.00,WUHU216HW,2017-05-26 16:29:00,
2017-05-26 10:34:00,60.1,40.9,29.95,NNW,338,4.7,4.7,49,0.00,,,0.00,WUHU216HW,2017-05-26 16:34:00,
2017-05-26 10:39:00,60.5,40.7,29.95,NE,45,1.8,4.7,48,0.00,,,0.00,WUHU216HW,2017-05-26 16:39:00,
2017-05-26 10:44:00,60.8,41.0,29.95,WNW,293,3.6,4.3,48,0.00,,,0.00,WUHU216HW,2017-05-26 16:44:00,
2017-05-26 10:49:00,61.2,40.7,29.95,WNW,293,3.4,5.6,47,0.00,,,0.00,WUHU216HW,2017-05-26 16:49:00,
2017-05-26 10:54:00,61.6,41.0,29.95,NNE,23,1.3,5.6,47,0.00,,,0.00,WUHU216HW,2017-05-26 16:54:00,
2017-05-26 10:59:00,62.3,41.1,29.95,NE,45,1.3,4.9,46,0.00,,,0.00,WUHU216HW,2017-05-26 16:59:00,
2017-05-26 11:04:00,62.6,40.9,29.95,North,0,3.6,4.0,45,0.00,,,0.00,WUHU216HW,2017-05-26 17:04:00,
2017-05-26 11:09:00,63.0,40.6,29.95,NNW,338,1.8,4.0,44,0.00,,,0.00,WUHU216HW,2017-05-26 17:09:00,
2017-05-26 11:14:00,63.0,39.4,29.95,NNW,338,5.4,5.4,42,0.00,,,0.00,WUHU216HW,2017-05-26 17:14:00,
2017-05-26 11:19:00,63.0,39.4,29.94,NW,315,4.5,5.4,42,0.00,,,0.00,WUHU216HW,2017-05-26 17:19:00,
2017-05-26 11:24:00,63.4,39.8,29.95,NNE,23,2.9,5.6,42,0.00,,,0.00,WUHU216HW,2017-05-26 17:24:00,
2017-05-26 11:29:00,63.7,39.0,29.95,WNW,293,6.3,6.3,40,0.00,,,0.00,WUHU216HW,2017-05-26 17:29:00,
2017-05-26 11:34:00,63.7,38.3,29.94,North,0,1.1,6.3,39,0.00,,,0.00,WUHU216HW,2017-05-26 17:34:00,
2017-05-26 11:39:00,64.1,38.5,29.94,NW,315,5.4,5.4,39,0.00,,,0.00,WUHU216HW,2017-05-26 17:39:00,
2017-05-26 11:44:00,64.4,38.2,29.94,WNW,293,4.0,5.4,38,0.00,,,0.00,WUHU216HW,2017-05-26 17:44:00,
2017-05-26 11:49:00,64.8,38.5,29.94,WSW,248,5.4,6.3,38,0.00,,,0.00,WUHU216HW,2017-05-26 17:49:00,
2017-05-26 11:54:00,65.0,38.6,29.94,NW,315,4.9,6.3,38,0.00,,,0.00,WUHU216HW,2017-05-26 17:54:00,
2017-05-26 11:59:00,65.2,38.8,29.94,WNW,293,0.7,4.9,38,0.00,,,0.00,WUHU216HW,2017-05-26 17:59:00,
2017-05-26 12:04:00,65.5,38.4,29.94,NNW,338,3.4,4.3,37,0.00,,,0.00,WUHU216HW,2017-05-26 18:04:00,
2017-05-26 12:09:00,65.5,37.7,29.94,NNE,23,4.5,6.0,36,0.00,,,0.00,WUHU216HW,2017-05-26 18:09:00,
2017-05-26 12:14:00,65.5,38.4,29.94,North,0,4.0,6.0,37,0.00,,,0.00,WUHU216HW,2017-05-26 18:14:00,
2017-05-26 12:19:00,65.5,39.2,29.94,NNE,23,2.5,5.6,38,0.00,,,0.00,WUHU216HW,2017-05-26 18:19:00,
2017-05-26 12:24:00,65.9,39.4,29.94,ENE,68,4.7,5.8,38,0.00,,,0.00,WUHU216HW,2017-05-26 18:24:00,
2017-05-26 12:34:00,66.2,39.1,29.94,North,0,6.3,8.9,37,0.00,,,0.00,WUHU216HW,2017-05-26 18:34:00,
2017-05-26 12:39:00,66.2,39.1,29.94,NNW,338,1.8,6.3,37,0.00,,,0.00,WUHU216HW,2017-05-26 18:39:00,
2017-05-26 12:44:00,66.2,39.1,29.94,ENE,68,1.3,5.1,37,0.00,,,0.00,WUHU216HW,2017-05-26 18:44:00,
2017-05-26 12:49:00,66.6,39.3,29.94,NNE,23,2.7,5.1,37,0.00,,,0.00,WUHU216HW,2017-05-26 18:49:00,